Flag for Italy Weather past 2 weeks in Venice, Italy

Now
70 °F

Fog.


Feels Like: 70 °F
Forecast: 50 / 65 °F
Wind: 6 mph from Southwest

Location: Venice / Tessera

Current Time: Oct 21, 2014 at 1:26:28 PM

Latest Report: Oct 21, 2014 at 12:50 PM


Visibility: 2 mi

Pressure: 29.89 "Hg

Humidity: 78%

Dew point: 63 °F

Location of VeniceLocation

Historic Weather in Venice — Graph

°F

Venice temperature yesterday

Maximum temperature yesterday: 68 °F (at 12:50 PM)
Minimum temperature yesterday: 63 °F (at 2:50 AM)
Average temperature yesterday: 66 °F

Past Weeks' High & Low Weather Summary

 TemperatureHumidityPressure
High75 °F (Oct 17, 3:20 PM)100% (Oct 9, 1:50 AM)30.27 "Hg (Oct 9, 1:50 AM)
Low54 °F (Oct 7, 5:20 AM)60% (Oct 6, 12:20 PM)29.77 "Hg (Oct 13, 5:50 PM)
Average66 °F89%30.00 "Hg
* Reported Oct 6 12:20 PM — Oct 21 12:20 PM, Venice, Weather by CustomWeather, © 2014

Note: Actual official high and low records may vary slightly from our data, if they occured in-between our weather recording intervals... More about our weather records

Advertising

Venice weather history for previous 24 hours

 ConditionsComfort  
Time TempWeatherWind HumidityBarometerVisibility
12:20 PM
Oct 21
70 °FFog.5 mph88%29.89 "Hg2 mi
11:50 AM70 °FFog.2 mph88%29.89 "Hg1 mi
11:20 AM68 °FFog.No wind94%29.89 "Hg1 mi
10:50 AM66 °FFog.1 mph94%29.89 "Hg1 mi
10:20 AM66 °FFog.1 mph94%29.89 "Hg1 mi
9:50 AM64 °FFog.2 mph100%29.92 "Hg1 mi
9:20 AM64 °FFog.2 mph94%29.89 "Hg1 mi
8:50 AM64 °FFog.3 mph100%29.89 "Hg1 mi
8:20 AM64 °FPassing clouds.2 mph94%29.89 "Hg1 mi
7:50 AM64 °FPassing clouds.No wind94%29.89 "Hg1 mi
7:20 AM64 °FPassing clouds.No wind100%29.89 "Hg1 mi
6:50 AM64 °FFog.No wind100%29.89 "Hg1 mi
6:20 AM64 °FFog.1 mph94%29.89 "Hg1 mi
5:50 AM64 °FFog.No wind100%29.92 "Hg1 mi
4:50 AM64 °FFog.No wind94%29.95 "Hg1 mi
4:20 AM64 °FFog.1 mph94%29.95 "Hg1 mi
3:50 AM64 °FFog.No wind94%29.95 "Hg2 mi
3:20 AM64 °FFog.2 mph94%29.95 "Hg2 mi
2:50 AM64 °FFog.3 mph94%29.98 "Hg2 mi
2:20 AM64 °FFog.1 mph94%29.98 "Hg2 mi
1:50 AM64 °FFog.2 mph94%29.98 "Hg2 mi
1:20 AM66 °FFog.3 mph94%29.98 "Hg2 mi
12:50 AM66 °FFog.3 mph88%30.01 "Hg2 mi
12:20 AM66 °FFog.5 mph94%30.01 "Hg2 mi
11:50 PM
Oct 20
66 °FFog.5 mph88%30.04 "Hg2 mi
11:20 PM66 °FFog.6 mph94%30.04 "Hg2 mi
10:50 PM66 °FFog.6 mph94%30.04 "Hg2 mi
10:20 PM66 °FFog.5 mph94%30.07 "Hg2 mi
9:50 PM66 °FFog.7 mph94%30.07 "Hg2 mi
9:20 PM68 °FFog.5 mph88%30.07 "Hg2 mi
8:50 PM68 °FFog.6 mph88%30.07 "Hg2 mi
8:20 PM66 °FFog.6 mph94%30.07 "Hg2 mi
7:50 PM66 °FFog.2 mph94%30.07 "Hg2 mi
7:20 PM68 °FFog.2 mph88%30.07 "Hg2 mi
6:50 PM68 °FFog.2 mph88%30.07 "Hg2 mi
6:20 PM68 °FFog.No wind88%30.07 "Hg2 mi
5:50 PM68 °FFog.1 mph88%30.09 "Hg2 mi
5:20 PM68 °FFog.3 mph94%30.09 "Hg2 mi
4:50 PM68 °FFog.5 mph94%30.09 "Hg2 mi
4:20 PM68 °FFog.5 mph94%30.09 "Hg2 mi
3:50 PM68 °FFog.5 mph94%30.09 "Hg2 mi
3:20 PM68 °FFog.5 mph94%30.09 "Hg2 mi
2:50 PM68 °FFog.3 mph88%30.12 "Hg2 mi
2:20 PM68 °FFog.5 mph94%30.12 "Hg2 mi
1:50 PM68 °FFog.No wind94%30.12 "Hg2 mi
1:20 PM68 °FFog.3 mph88%30.15 "Hg1 mi
Weather by CustomWeather, © 2014

See weather overviewHow to use our weather pages